| time (UTC) | temp C | wind direction | speed KPH | gust KPH | rain 1hr cm | rain 24hr cm | rain mn cm | humidity % | barometer mb |
| 20260902234049 | 22 | 151 | 3.2 | 24.1 | 0.00 | 0.00 | 0.00 | 39 | 1020.3 |
| 20260902233545 | 23 | 153 | 4.8 | 24.1 | 0.00 | 0.00 | 0.00 | 38 | 1020.4 |
| 20260902233103 | 23 | 173 | 1.6 | 20.9 | 0.00 | 0.00 | 0.00 | 38 | 1020.4 |
| 20260902232547 | 23 | 211 | 4.8 | 17.7 | 0.00 | 0.00 | 0.00 | 38 | 1020.5 |
| 20260902232045 | 23 | 167 | 6.4 | 17.7 | 0.00 | 0.00 | 0.00 | 39 | 1020.4 |
| 20260902231604 | 23 | 138 | 1.6 | 16.1 | 0.00 | 0.00 | 0.00 | 41 | 1020.3 |
| 20260902231045 | 23 | 171 | 4.8 | 16.1 | 0.00 | 0.00 | 0.00 | 40 | 1020.6 |
| 20260902230548 | 23 | 111 | 3.2 | 17.7 | 0.00 | 0.00 | 0.00 | 40 | 1020.5 |
| 20260902225545 | 23 | 237 | 4.8 | 12.9 | 0.00 | 0.00 | 0.00 | 40 | 1020.6 |
| 20260902225046 | 23 | 151 | 4.8 | 19.3 | 0.00 | 0.00 | 0.00 | 39 | 1020.8 |
| 20260902224611 | 24 | 214 | 4.8 | 19.3 | 0.00 | 0.00 | 0.00 | 38 | 1020.8 |
| 20260902224047 | 24 | 122 | 8.0 | 19.3 | 0.00 | 0.00 | 0.00 | 37 | 1020.7 |
| 20260902223548 | 25 | 189 | 1.6 | 19.3 | 0.00 | 0.00 | 0.00 | 38 | 1020.6 |
| 20260902223102 | 25 | 111 | 4.8 | 19.3 | 0.00 | 0.00 | 0.00 | 36 | 1020.6 |
| 20260902222551 | 25 | 141 | 3.2 | 19.3 | 0.00 | 0.00 | 0.00 | 35 | 1020.7 |
| 20260902222047 | 25 | 305 | 1.6 | 20.9 | 0.00 | 0.00 | 0.00 | 30 | 1020.6 |
| 20260902221609 | 25 | 118 | 4.8 | 20.9 | 0.00 | 0.00 | 0.00 | 29 | 1020.8 |
| 20260902221046 | 25 | 63 | 4.8 | 19.3 | 0.00 | 0.00 | 0.00 | 25 | 1020.8 |
| 20260902220544 | 25 | 161 | 4.8 | 19.3 | 0.00 | 0.00 | 0.00 | 25 | 1020.8 |
| 20260902220104 | 25 | 306 | 4.8 | 19.3 | 0.00 | 0.00 | 0.00 | 21 | 1020.9 |
| 20260902215547 | 25 | 96 | 3.2 | 19.3 | 0.00 | 0.00 | 0.00 | 21 | 1021.1 |
| 20260902215047 | 25 | 141 | 6.4 | 19.3 | 0.00 | 0.00 | 0.00 | 21 | 1021.0 |
| 20260902214607 | 25 | 167 | 3.2 | 14.5 | 0.00 | 0.00 | 0.00 | 19 | 1021.0 |
| 20260902214048 | 25 | 120 | 3.2 | 14.5 | 0.00 | 0.00 | 0.00 | 18 | 1021.1 |
| 20260902213551 | 25 | 126 | 4.8 | 14.5 | 0.00 | 0.00 | 0.00 | 19 | 1021.2 |
| 20260902213059 | 25 | 136 | 4.8 | 14.5 | 0.00 | 0.00 | 0.00 | 18 | 1021.3 |
| 20260902212547 | 25 | 157 | 4.8 | 16.1 | 0.00 | 0.00 | 0.00 | 18 | 1021.4 |
| 20260902212044 | 25 | 175 | 1.6 | 16.1 | 0.00 | 0.00 | 0.00 | 17 | 1021.6 |
| 20260902211617 | 25 | 227 | 4.8 | 16.1 | 0.00 | 0.00 | 0.00 | 18 | 1021.5 |
| 20260902211045 | 25 | 221 | 3.2 | 11.3 | 0.00 | 0.00 | 0.00 | 16 | 1021.7 |
| 20260902210545 | 25 | 225 | 1.6 | 11.3 | 0.00 | 0.00 | 0.00 | 20 | 1021.5 |
| 20260902210119 | 25 | 144 | 1.6 | 14.5 | 0.00 | 0.00 | 0.00 | 17 | 1021.6 |
| 20260902205547 | 25 | 19 | 3.2 | 14.5 | 0.00 | 0.00 | 0.00 | 16 | 1021.6 |
| 20260902205047 | 25 | 173 | 4.8 | 17.7 | 0.00 | 0.00 | 0.00 | 18 | 1021.4 |
| 20260902204603 | 25 | 201 | 3.2 | 17.7 | 0.00 | 0.00 | 0.00 | 19 | 1021.4 |
| 20260902204045 | 25 | 157 | 3.2 | 22.5 | 0.00 | 0.00 | 0.00 | 19 | 1021.4 |
| 20260902203545 | 25 | 150 | 4.8 | 22.5 | 0.00 | 0.00 | 0.00 | 18 | 1021.6 |
| 20260902203106 | 25 | 310 | 8.0 | 22.5 | 0.00 | 0.00 | 0.00 | 17 | 1021.6 |
| 20260902202546 | 25 | 184 | 4.8 | 16.1 | 0.00 | 0.00 | 0.00 | 17 | 1021.6 |
| 20260902202048 | 25 | 147 | 3.2 | 16.1 | 0.00 | 0.00 | 0.00 | 17 | 1021.7 |
| 20260902201613 | 25 | 136 | 3.2 | 14.5 | 0.00 | 0.00 | 0.00 | 18 | 1021.6 |
| 20260902201045 | 25 | 132 | 4.8 | 16.1 | 0.00 | 0.00 | 0.00 | 19 | 1021.7 |
| 20260902200546 | 25 | 184 | 3.2 | 16.1 | 0.00 | 0.00 | 0.00 | 19 | 1021.8 |
| 20260902200100 | 24 | 0 | 3.2 | 16.1 | 0.00 | 0.00 | 0.00 | 20 | 1021.8 |
| 20260902195545 | 24 | 287 | 4.8 | 22.5 | 0.00 | 0.00 | 0.00 | 21 | 1021.9 |
| 20260902195044 | 24 | 137 | 3.2 | 22.5 | 0.00 | 0.00 | 0.00 | 23 | 1021.9 |
| 20260902194559 | 24 | 279 | 4.8 | 14.5 | 0.00 | 0.00 | 0.00 | 23 | 1021.9 |
| 20260902194048 | 24 | 63 | 4.8 | 22.5 | 0.00 | 0.00 | 0.00 | 23 | 1021.9 |
| 20260902193546 | 24 | 145 | 1.6 | 22.5 | 0.00 | 0.00 | 0.00 | 23 | 1021.9 |
| 20260902193104 | 24 | 166 | 3.2 | 19.3 | 0.00 | 0.00 | 0.00 | 22 | 1022.0 |
| 20260902192546 | 23 | 0 | 4.8 | 19.3 | 0.00 | 0.00 | 0.00 | 20 | 1021.9 |
| 20260902192045 | 23 | 229 | 3.2 | 19.3 | 0.00 | 0.00 | 0.00 | 20 | 1022.0 |
| 20260902191605 | 23 | 57 | 1.6 | 19.3 | 0.00 | 0.00 | 0.00 | 22 | 1022.0 |
| 20260902191044 | 23 | 200 | 3.2 | 19.3 | 0.00 | 0.00 | 0.00 | 23 | 1021.9 |
| 20260902190546 | 23 | 178 | 4.8 | 16.1 | 0.00 | 0.00 | 0.00 | 23 | 1022.0 |
| 20260902190104 | 23 | 150 | 3.2 | 16.1 | 0.00 | 0.00 | 0.00 | 22 | 1022.0 |
| 20260902185542 | 23 | 250 | 4.8 | 14.5 | 0.00 | 0.00 | 0.00 | 21 | 1022.1 |
| 20260902185045 | 23 | 182 | 1.6 | 12.9 | 0.00 | 0.00 | 0.00 | 23 | 1022.0 |
| 20260902184600 | 22 | 159 | 1.6 | 20.9 | 0.00 | 0.00 | 0.00 | 21 | 1022.1 |
| 20260902184050 | 22 | 221 | 3.2 | 20.9 | 0.00 | 0.00 | 0.00 | 21 | 1022.2 |
| 20260902183548 | 22 | 192 | 4.8 | 17.7 | 0.00 | 0.00 | 0.00 | 20 | 1022.2 |
| 20260902183105 | 22 | 170 | 1.6 | 12.9 | 0.00 | 0.00 | 0.00 | 21 | 1022.1 |
| 20260902182544 | 22 | 159 | 3.2 | 12.9 | 0.00 | 0.00 | 0.00 | 20 | 1022.2 |
| 20260902182050 | 22 | 159 | 4.8 | 12.9 | 0.00 | 0.00 | 0.00 | 20 | 1022.3 |
| 20260902181606 | 22 | 0 | 1.6 | 17.7 | 0.00 | 0.00 | 0.00 | 22 | 1022.3 |
| 20260902181043 | 22 | 169 | 3.2 | 17.7 | 0.00 | 0.00 | 0.00 | 22 | 1022.3 |
| 20260902180545 | 21 | 194 | 4.8 | 20.9 | 0.00 | 0.00 | 0.00 | 20 | 1022.3 |
| 20260902180117 | 21 | 315 | 3.2 | 20.9 | 0.00 | 0.00 | 0.00 | 20 | 1022.2 |
| 20260902175547 | 21 | 176 | 4.8 | 12.9 | 0.00 | 0.00 | 0.00 | 20 | 1022.4 |
| 20260902175044 | 21 | 102 | 3.2 | 12.9 | 0.00 | 0.00 | 0.00 | 21 | 1022.3 |
| 20260902174604 | 21 | 153 | 3.2 | 11.3 | 0.00 | 0.00 | 0.00 | 22 | 1022.4 |
| 20260902174045 | 21 | 189 | 3.2 | 11.3 | 0.00 | 0.00 | 0.00 | 22 | 1022.2 |
| 20260902173546 | 21 | 269 | 1.6 | 17.7 | 0.00 | 0.00 | 0.00 | 21 | 1022.3 |
| 20260902173101 | 21 | 181 | 3.2 | 17.7 | 0.00 | 0.00 | 0.00 | 21 | 1022.3 |
| 20260902172545 | 21 | 203 | 4.8 | 12.9 | 0.00 | 0.00 | 0.00 | 21 | 1022.3 |
| 20260902172046 | 21 | 217 | 3.2 | 9.7 | 0.00 | 0.00 | 0.00 | 24 | 1022.2 |
| 20260902171601 | 21 | 182 | 1.6 | 9.7 | 0.00 | 0.00 | 0.00 | 23 | 1022.0 |
| 20260902171042 | 21 | 0 | 1.6 | 9.7 | 0.00 | 0.00 | 0.00 | 22 | 1022.0 |
| 20260902170545 | 21 | 0 | 1.6 | 9.7 | 0.00 | 0.00 | 0.00 | 22 | 1022.0 |
| 20260902170111 | 21 | 155 | 1.6 | 12.9 | 0.00 | 0.00 | 0.00 | 23 | 1022.1 |
| 20260902165546 | 20 | 0 | 1.6 | 12.9 | 0.00 | 0.00 | 0.00 | 23 | 1022.0 |
| 20260902165047 | 20 | 136 | 3.2 | 12.9 | 0.00 | 0.00 | 0.00 | 24 | 1022.0 |
| 20260902164601 | 20 | 209 | 1.6 | 16.1 | 0.00 | 0.00 | 0.00 | 24 | 1022.0 |
| 20260902164046 | 20 | 157 | 6.4 | 16.1 | 0.00 | 0.00 | 0.00 | 23 | 1022.0 |
| 20260902163545 | 20 | 0 | 1.6 | 11.3 | 0.00 | 0.00 | 0.00 | 24 | 1021.9 |
| 20260902163056 | 20 | 257 | 3.2 | 11.3 | 0.00 | 0.00 | 0.00 | 23 | 1021.9 |
| 20260902162545 | 19 | 169 | 1.6 | 12.9 | 0.00 | 0.00 | 0.00 | 24 | 1021.8 |
| 20260902162046 | 19 | 83 | 1.6 | 12.9 | 0.00 | 0.00 | 0.00 | 25 | 1021.8 |
| 20260902161605 | 19 | 0 | 0.0 | 6.4 | 0.00 | 0.00 | 0.00 | 25 | 1021.8 |
| 20260902161044 | 19 | 99 | 0.0 | 8.0 | 0.00 | 0.00 | 0.00 | 25 | 1021.8 |
| 20260902160545 | 18 | 155 | 0.0 | 9.7 | 0.00 | 0.00 | 0.00 | 26 | 1021.9 |
| 20260902160112 | 18 | 155 | 1.6 | 9.7 | 0.00 | 0.00 | 0.00 | 25 | 1021.7 |
| 20260902155543 | 18 | 192 | 1.6 | 9.7 | 0.00 | 0.00 | 0.00 | 26 | 1021.7 |
| 20260902155050 | 17 | 0 | 1.6 | 11.3 | 0.00 | 0.00 | 0.00 | 27 | 1021.7 |
| 20260902154559 | 17 | 155 | 1.6 | 11.3 | 0.00 | 0.00 | 0.00 | 28 | 1021.6 |
| 20260902154045 | 16 | 178 | 1.6 | 11.3 | 0.00 | 0.00 | 0.00 | 28 | 1021.6 |
| 20260902153545 | 16 | 151 | 0.0 | 8.0 | 0.00 | 0.00 | 0.00 | 30 | 1021.5 |
| 20260902153104 | 15 | 190 | 0.0 | 6.4 | 0.00 | 0.00 | 0.00 | 30 | 1021.5 |
| 20260902152542 | 15 | 72 | 0.0 | 6.4 | 0.00 | 0.00 | 0.00 | 33 | 1021.5 |
| 20260902152045 | 15 | 75 | 1.6 | 4.8 | 0.00 | 0.00 | 0.00 | 33 | 1021.4 |
| 20260902151601 | 14 | 55 | 0.0 | 4.8 | 0.00 | 0.00 | 0.00 | 32 | 1021.5 |
| 20260902151046 | 13 | 37 | 1.6 | 6.4 | 0.00 | 0.00 | 0.00 | 33 | 1021.5 |
| 20260902150544 | 13 | 0 | 0.0 | 6.4 | 0.00 | 0.00 | 0.00 | 34 | 1021.5 |
| 20260902150059 | 13 | 0 | 1.6 | 6.4 | 0.00 | 0.00 | 0.00 | 34 | 1021.5 |
| 20260902145546 | 13 | 0 | 0.0 | 3.2 | 0.00 | 0.00 | 0.00 | 33 | 1021.5 |
| 20260902145045 | 13 | 0 | 0.0 | 3.2 | 0.00 | 0.00 | 0.00 | 34 | 1021.4 |
| 20260902144606 | 13 | 0 | 0.0 | 4.8 | 0.00 | 0.00 | 0.00 | 34 | 1021.5 |
| 20260902144047 | 13 | 0 | 0.0 | 4.8 | 0.00 | 0.00 | 0.00 | 34 | 1021.5 |
| 20260902143542 | 13 | 0 | 0.0 | 4.8 | 0.00 | 0.00 | 0.00 | 34 | 1021.5 |
| 20260902143100 | 13 | 0 | 0.0 | 1.6 | 0.00 | 0.00 | 0.00 | 34 | 1021.5 |
| 20260902142545 | 13 | 0 | 0.0 | 3.2 | 0.00 | 0.00 | 0.00 | 34 | 1021.5 |
| 20260902142043 | 13 | 0 | 0.0 | 4.8 | 0.00 | 0.00 | 0.00 | 34 | 1021.4 |
| 20260902141602 | 12 | 0 | 0.0 | 4.8 | 0.00 | 0.00 | 0.00 | 34 | 1021.4 |
| 20260902141043 | 12 | 0 | 0.0 | 4.8 | 0.00 | 0.00 | 0.00 | 34 | 1021.4 |
| 20260902140544 | 12 | 0 | 0.0 | 3.2 | 0.00 | 0.00 | 0.00 | 34 | 1021.3 |
| 20260902135545 | 12 | 0 | 0.0 | 3.2 | 0.00 | 0.00 | 0.00 | 34 | 1021.1 |
| 20260902135044 | 12 | 70 | 0.0 | 1.6 | 0.00 | 0.00 | 0.00 | 34 | 1021.2 |
| 20260902134601 | 12 | 0 | 0.0 | 1.6 | 0.00 | 0.00 | 0.00 | 34 | 1021.1 |
| 20260902134044 | 12 | 0 | 0.0 | 1.6 | 0.00 | 0.00 | 0.00 | 33 | 1021.0 |
| 20260902133544 | 12 | 0 | 0.0 | 1.6 | 0.00 | 0.00 | 0.00 | 33 | 1021.0 |
| 20260902133100 | 12 | 0 | 0.0 | 1.6 | 0.00 | 0.00 | 0.00 | 32 | 1020.8 |
| 20260902132545 | 12 | 0 | 0.0 | 0.0 | 0.00 | 0.00 | 0.00 | 32 | 1020.8 |
| 20260902132045 | 12 | 0 | 0.0 | 0.0 | 0.00 | 0.00 | 0.00 | 31 | 1020.8 |
| 20260902131604 | 12 | 0 | 0.0 | 0.0 | 0.00 | 0.00 | 0.00 | 32 | 1020.8 |
| 20260902131047 | 12 | 0 | 0.0 | 0.0 | 0.00 | 0.00 | 0.00 | 32 | 1020.7 |
| 20260902130547 | 12 | 0 | 0.0 | 0.0 | 0.00 | 0.00 | 0.00 | 32 | 1020.7 |
| 20260902130106 | 12 | 0 | 0.0 | 0.0 | 0.00 | 0.00 | 0.00 | 33 | 1020.7 |
| 20260902125545 | 12 | 0 | 0.0 | 0.0 | 0.00 | 0.00 | 0.00 | 32 | 1020.7 |
| 20260902125045 | 12 | 0 | 0.0 | 0.0 | 0.00 | 0.00 | 0.00 | 33 | 1020.7 |
| 20260902124556 | 12 | 0 | 0.0 | 1.6 | 0.00 | 0.00 | 0.00 | 32 | 1020.8 |
| 20260902124047 | 12 | 0 | 0.0 | 1.6 | 0.00 | 0.00 | 0.00 | 31 | 1020.6 |
| 20260902123546 | 12 | 0 | 0.0 | 1.6 | 0.00 | 0.00 | 0.00 | 32 | 1020.8 |
| 20260902123059 | 12 | 0 | 0.0 | 1.6 | 0.00 | 0.00 | 0.00 | 32 | 1020.8 |
| 20260902122546 | 12 | 0 | 0.0 | 0.0 | 0.00 | 0.00 | 0.00 | 33 | 1020.8 |
| 20260902122044 | 12 | 0 | 0.0 | 0.0 | 0.00 | 0.00 | 0.00 | 34 | 1020.8 |
| 20260902121600 | 12 | 0 | 0.0 | 0.0 | 0.00 | 0.00 | 0.00 | 34 | 1020.8 |
| 20260902121045 | 12 | 0 | 0.0 | 0.0 | 0.00 | 0.00 | 0.00 | 35 | 1020.8 |
| 20260902120545 | 12 | 0 | 0.0 | 3.2 | 0.00 | 0.00 | 0.00 | 36 | 1020.7 |
| 20260902120059 | 12 | 0 | 0.0 | 3.2 | 0.00 | 0.00 | 0.00 | 37 | 1020.8 |
| 20260902115547 | 12 | 0 | 0.0 | 3.2 | 0.00 | 0.00 | 0.00 | 37 | 1020.8 |
| 20260902115044 | 12 | 0 | 0.0 | 1.6 | 0.00 | 0.00 | 0.00 | 37 | 1020.9 |
| 20260902114603 | 12 | 0 | 0.0 | 4.8 | 0.00 | 0.00 | 0.00 | 36 | 1020.8 |
| 20260902114044 | 12 | 0 | 0.0 | 4.8 | 0.00 | 0.00 | 0.00 | 36 | 1020.8 |
| 20260902113544 | 12 | 0 | 0.0 | 3.2 | 0.00 | 0.00 | 0.00 | 34 | 1020.8 |
| 20260902113102 | 12 | 0 | 0.0 | 3.2 | 0.00 | 0.00 | 0.00 | 33 | 1020.8 |
| 20260902112547 | 12 | 0 | 0.0 | 3.2 | 0.00 | 0.00 | 0.00 | 34 | 1020.8 |
| 20260902112047 | 12 | 92 | 0.0 | 1.6 | 0.00 | 0.00 | 0.00 | 33 | 1020.9 |
| 20260902111604 | 12 | 0 | 0.0 | 3.2 | 0.00 | 0.00 | 0.00 | 33 | 1020.8 |
| 20260902111048 | 12 | 0 | 0.0 | 3.2 | 0.00 | 0.00 | 0.00 | 33 | 1020.8 |
| 20260902110548 | 12 | 0 | 0.0 | 0.0 | 0.00 | 0.00 | 0.00 | 33 | 1020.9 |
| 20260902110104 | 12 | 0 | 0.0 | 0.0 | 0.00 | 0.00 | 0.00 | 34 | 1020.9 |
| 20260902105548 | 12 | 0 | 0.0 | 0.0 | 0.00 | 0.00 | 0.00 | 33 | 1021.1 |
| 20260902105044 | 12 | 0 | 0.0 | 0.0 | 0.00 | 0.00 | 0.00 | 34 | 1021.1 |
| 20260902104603 | 12 | 0 | 0.0 | 0.0 | 0.00 | 0.00 | 0.00 | 34 | 1021.1 |
| 20260902104045 | 12 | 0 | 0.0 | 0.0 | 0.00 | 0.00 | 0.00 | 34 | 1021.1 |
| 20260902103546 | 12 | 0 | 0.0 | 0.0 | 0.00 | 0.00 | 0.00 | 35 | 1021.2 |
| 20260902103103 | 12 | 0 | 0.0 | 0.0 | 0.00 | 0.00 | 0.00 | 35 | 1021.2 |
| 20260902102547 | 12 | 0 | 0.0 | 1.6 | 0.00 | 0.00 | 0.00 | 34 | 1021.3 |
| 20260902102044 | 12 | 0 | 0.0 | 1.6 | 0.00 | 0.00 | 0.00 | 35 | 1021.2 |
| 20260902101602 | 12 | 0 | 0.0 | 1.6 | 0.00 | 0.00 | 0.00 | 34 | 1021.3 |
| 20260902101045 | 12 | 0 | 0.0 | 1.6 | 0.00 | 0.00 | 0.00 | 34 | 1021.4 |
| 20260902100547 | 12 | 0 | 0.0 | 1.6 | 0.00 | 0.00 | 0.00 | 35 | 1021.4 |
| 20260902100110 | 12 | 0 | 0.0 | 1.6 | 0.00 | 0.00 | 0.00 | 35 | 1021.4 |
| 20260902095545 | 12 | 0 | 0.0 | 1.6 | 0.00 | 0.00 | 0.00 | 34 | 1021.4 |
| 20260902095047 | 12 | 0 | 0.0 | 1.6 | 0.00 | 0.00 | 0.00 | 34 | 1021.4 |
| 20260902094616 | 12 | 0 | 0.0 | 1.6 | 0.00 | 0.00 | 0.00 | 34 | 1021.4 |
| 20260902094047 | 12 | 0 | 0.0 | 1.6 | 0.00 | 0.00 | 0.00 | 34 | 1021.4 |
| 20260902093547 | 12 | 0 | 0.0 | 1.6 | 0.00 | 0.00 | 0.00 | 35 | 1021.5 |
| 20260902093100 | 12 | 0 | 0.0 | 1.6 | 0.00 | 0.00 | 0.00 | 35 | 1021.5 |
| 20260902092545 | 12 | 0 | 0.0 | 3.2 | 0.00 | 0.00 | 0.00 | 34 | 1021.4 |
| 20260902092047 | 12 | 0 | 0.0 | 3.2 | 0.00 | 0.00 | 0.00 | 35 | 1021.5 |
| 20260902091602 | 12 | 0 | 0.0 | 1.6 | 0.00 | 0.00 | 0.00 | 34 | 1021.4 |
| 20260902091049 | 12 | 115 | 0.0 | 1.6 | 0.00 | 0.00 | 0.00 | 35 | 1021.5 |
| 20260902090547 | 12 | 0 | 0.0 | 0.0 | 0.00 | 0.00 | 0.00 | 35 | 1021.5 |
| 20260902085549 | 12 | 0 | 0.0 | 3.2 | 0.00 | 0.00 | 0.00 | 35 | 1021.6 |
| 20260902085048 | 12 | 0 | 0.0 | 3.2 | 0.00 | 0.00 | 0.00 | 35 | 1021.7 |
| 20260902084606 | 12 | 0 | 0.0 | 1.6 | 0.00 | 0.00 | 0.00 | 35 | 1021.7 |
| 20260902084046 | 12 | 0 | 0.0 | 1.6 | 0.00 | 0.00 | 0.00 | 35 | 1021.7 |
| 20260902083548 | 12 | 0 | 0.0 | 1.6 | 0.00 | 0.00 | 0.00 | 34 | 1021.7 |
| 20260902083058 | 12 | 115 | 0.0 | 1.6 | 0.00 | 0.00 | 0.00 | 34 | 1021.6 |
| 20260902082546 | 12 | 0 | 0.0 | 1.6 | 0.00 | 0.00 | 0.00 | 34 | 1021.7 |
| 20260902082045 | 12 | 0 | 0.0 | 1.6 | 0.00 | 0.00 | 0.00 | 34 | 1021.8 |
| 20260902081602 | 12 | 0 | 0.0 | 1.6 | 0.00 | 0.00 | 0.00 | 34 | 1021.7 |
| 20260902081048 | 12 | 0 | 0.0 | 1.6 | 0.00 | 0.00 | 0.00 | 34 | 1021.7 |
| 20260902080547 | 12 | 0 | 0.0 | 1.6 | 0.00 | 0.00 | 0.00 | 34 | 1021.7 |
| 20260902080113 | 12 | 0 | 0.0 | 3.2 | 0.00 | 0.00 | 0.00 | 34 | 1021.6 |
| 20260902075549 | 12 | 0 | 0.0 | 3.2 | 0.00 | 0.00 | 0.00 | 34 | 1021.7 |
| 20260902075048 | 12 | 0 | 0.0 | 3.2 | 0.00 | 0.00 | 0.00 | 34 | 1021.7 |
| 20260902074600 | 12 | 0 | 0.0 | 3.2 | 0.00 | 0.00 | 0.00 | 34 | 1021.7 |
| 20260902074045 | 12 | 0 | 0.0 | 3.2 | 0.00 | 0.00 | 0.00 | 34 | 1021.7 |
| 20260902073547 | 12 | 0 | 0.0 | 1.6 | 0.00 | 0.00 | 0.00 | 33 | 1021.7 |
| 20260902073057 | 12 | 0 | 0.0 | 1.6 | 0.00 | 0.00 | 0.00 | 33 | 1021.7 |
| 20260902072547 | 12 | 0 | 0.0 | 1.6 | 0.00 | 0.00 | 0.00 | 33 | 1021.7 |
| 20260902072049 | 12 | 0 | 0.0 | 0.0 | 0.00 | 0.00 | 0.00 | 33 | 1021.6 |
| 20260902071603 | 12 | 0 | 0.0 | 1.6 | 0.00 | 0.00 | 0.00 | 33 | 1021.6 |
| 20260902071044 | 12 | 0 | 0.0 | 1.6 | 0.00 | 0.00 | 0.00 | 33 | 1021.6 |
| 20260902070545 | 12 | 0 | 0.0 | 1.6 | 0.00 | 0.00 | 0.00 | 32 | 1021.6 |
| 20260902070107 | 12 | 0 | 0.0 | 1.6 | 0.00 | 0.00 | 0.00 | 34 | 1021.6 |
| 20260902065545 | 12 | 0 | 0.0 | 1.6 | 0.00 | 0.00 | 0.00 | 33 | 1021.6 |
| 20260902065044 | 12 | 0 | 0.0 | 1.6 | 0.00 | 0.00 | 0.00 | 34 | 1021.7 |
| 20260902064611 | 12 | 0 | 0.0 | 1.6 | 0.00 | 0.00 | 0.00 | 32 | 1021.7 |
| 20260902064045 | 12 | 0 | 0.0 | 1.6 | 0.00 | 0.00 | 0.00 | 33 | 1021.6 |
| 20260902063545 | 12 | 0 | 0.0 | 1.6 | 0.00 | 0.00 | 0.00 | 33 | 1021.6 |
| 20260902063106 | 12 | 0 | 0.0 | 1.6 | 0.00 | 0.00 | 0.00 | 34 | 1021.6 |
| 20260902062545 | 12 | 0 | 0.0 | 1.6 | 0.00 | 0.00 | 0.00 | 35 | 1021.5 |
| 20260902062044 | 12 | 0 | 0.0 | 3.2 | 0.00 | 0.00 | 0.00 | 35 | 1021.5 |
| 20260902061604 | 12 | 0 | 0.0 | 3.2 | 0.00 | 0.00 | 0.00 | 35 | 1021.5 |
| 20260902061046 | 12 | 0 | 1.6 | 3.2 | 0.00 | 0.00 | 0.00 | 36 | 1021.3 |
| 20260902060544 | 12 | 0 | 0.0 | 3.2 | 0.00 | 0.00 | 0.00 | 36 | 1021.2 |
| 20260902060113 | 12 | 0 | 0.0 | 3.2 | 0.00 | 0.00 | 0.00 | 36 | 1021.1 |
| 20260902055543 | 12 | 0 | 0.0 | 3.2 | 0.00 | 0.00 | 0.00 | 36 | 1021.0 |
| 20260902055045 | 12 | 0 | 0.0 | 3.2 | 0.00 | 0.00 | 0.00 | 39 | 1021.1 |
| 20260902054600 | 12 | 0 | 0.0 | 1.6 | 0.00 | 0.00 | 0.00 | 41 | 1021.1 |
| 20260902054044 | 12 | 0 | 0.0 | 1.6 | 0.00 | 0.00 | 0.00 | 43 | 1021.1 |
| 20260902053544 | 12 | 0 | 0.0 | 1.6 | 0.00 | 0.00 | 0.00 | 44 | 1021.2 |
| 20260902053124 | 12 | 0 | 0.0 | 0.0 | 0.00 | 0.00 | 0.00 | 43 | 1021.3 |
| 20260902052546 | 12 | 0 | 0.0 | 0.0 | 0.00 | 0.00 | 0.00 | 43 | 1021.3 |
| 20260902052045 | 12 | 0 | 0.0 | 1.6 | 0.00 | 0.00 | 0.00 | 47 | 1021.2 |
| 20260902051606 | 12 | 0 | 0.0 | 1.6 | 0.00 | 0.00 | 0.00 | 49 | 1021.4 |
| 20260902051043 | 12 | 0 | 0.0 | 1.6 | 0.00 | 0.00 | 0.00 | 50 | 1021.3 |
| 20260902050545 | 12 | 0 | 0.0 | 0.0 | 0.00 | 0.00 | 0.00 | 50 | 1021.4 |
| 20260902050107 | 13 | 0 | 0.0 | 0.0 | 0.00 | 0.00 | 0.00 | 49 | 1021.3 |
| 20260902045545 | 13 | 0 | 0.0 | 0.0 | 0.00 | 0.00 | 0.00 | 49 | 1021.3 |
| 20260902045044 | 13 | 0 | 0.0 | 1.6 | 0.00 | 0.00 | 0.00 | 48 | 1021.3 |
| 20260902044601 | 13 | 0 | 0.0 | 1.6 | 0.00 | 0.00 | 0.00 | 48 | 1021.4 |
| 20260902044044 | 13 | 0 | 0.0 | 1.6 | 0.00 | 0.00 | 0.00 | 48 | 1021.3 |
| 20260902043544 | 13 | 0 | 0.0 | 1.6 | 0.00 | 0.00 | 0.00 | 49 | 1021.3 |
| 20260902043103 | 13 | 0 | 0.0 | 1.6 | 0.00 | 0.00 | 0.00 | 49 | 1021.2 |
| 20260902042542 | 13 | 0 | 0.0 | 1.6 | 0.00 | 0.00 | 0.00 | 49 | 1021.1 |
| 20260902042044 | 13 | 0 | 0.0 | 1.6 | 0.00 | 0.00 | 0.00 | 50 | 1021.0 |
| 20260902041600 | 13 | 0 | 0.0 | 1.6 | 0.00 | 0.00 | 0.00 | 50 | 1020.9 |
| 20260902041042 | 13 | 0 | 0.0 | 0.0 | 0.00 | 0.00 | 0.00 | 52 | 1020.9 |
| 20260902040544 | 14 | 0 | 0.0 | 0.0 | 0.00 | 0.00 | 0.00 | 51 | 1020.8 |
| 20260902035549 | 14 | 0 | 0.0 | 0.0 | 0.00 | 0.00 | 0.00 | 51 | 1020.9 |
| 20260902035046 | 15 | 0 | 0.0 | 0.0 | 0.00 | 0.00 | 0.00 | 52 | 1020.8 |
| 20260902034607 | 15 | 0 | 0.0 | 0.0 | 0.00 | 0.00 | 0.00 | 54 | 1020.6 |
| 20260902034043 | 15 | 0 | 0.0 | 0.0 | 0.00 | 0.00 | 0.00 | 54 | 1020.6 |
| 20260902033546 | 15 | 0 | 0.0 | 1.6 | 0.00 | 0.00 | 0.00 | 54 | 1020.5 |
| 20260902033107 | 15 | 0 | 0.0 | 3.2 | 0.00 | 0.00 | 0.00 | 53 | 1020.5 |
| 20260902032545 | 15 | 0 | 0.0 | 3.2 | 0.00 | 0.00 | 0.00 | 53 | 1020.4 |
| 20260902032045 | 16 | 124 | 0.0 | 3.2 | 0.00 | 0.00 | 0.00 | 53 | 1020.4 |
| 20260902031609 | 16 | 0 | 0.0 | 1.6 | 0.00 | 0.00 | 0.00 | 53 | 1020.3 |
| 20260902031045 | 16 | 0 | 0.0 | 0.0 | 0.00 | 0.00 | 0.00 | 53 | 1020.2 |
| 20260902030550 | 16 | 0 | 0.0 | 1.6 | 0.00 | 0.00 | 0.00 | 52 | 1020.1 |
| 20260902030056 | 16 | 0 | 0.0 | 1.6 | 0.00 | 0.00 | 0.00 | 52 | 1020.1 |
| 20260902025545 | 17 | 0 | 0.0 | 3.2 | 0.00 | 0.00 | 0.00 | 52 | 1020.0 |
| 20260902025045 | 17 | 0 | 0.0 | 3.2 | 0.00 | 0.00 | 0.00 | 52 | 1020.0 |
| 20260902024608 | 17 | 0 | 0.0 | 3.2 | 0.00 | 0.00 | 0.00 | 51 | 1019.9 |
| 20260902024045 | 17 | 0 | 0.0 | 3.2 | 0.00 | 0.00 | 0.00 | 52 | 1020.0 |
| 20260902023631 | 17 | 126 | 0.0 | 4.8 | 0.00 | 0.00 | 0.00 | 51 | 1020.0 |
| 20260902023056 | 18 | 0 | 0.0 | 4.8 | 0.00 | 0.00 | 0.00 | 51 | 1019.9 |
| 20260902022545 | 18 | 0 | 0.0 | 4.8 | 0.00 | 0.00 | 0.00 | 50 | 1020.0 |
| 20260902022045 | 18 | 0 | 0.0 | 1.6 | 0.00 | 0.00 | 0.00 | 48 | 1019.9 |
| 20260902021612 | 18 | 0 | 0.0 | 1.6 | 0.00 | 0.00 | 0.00 | 48 | 1020.0 |
| 20260902021044 | 18 | 0 | 0.0 | 1.6 | 0.00 | 0.00 | 0.00 | 47 | 1019.8 |
| 20260902020548 | 19 | 85 | 0.0 | 3.2 | 0.00 | 0.00 | 0.00 | 46 | 1019.9 |
| 20260902015544 | 19 | 0 | 0.0 | 4.8 | 0.00 | 0.00 | 0.00 | 43 | 1019.9 |
| 20260902015043 | 19 | 232 | 0.0 | 4.8 | 0.00 | 0.00 | 0.00 | 40 | 1020.0 |
| 20260902014650 | 19 | 338 | 0.0 | 4.8 | 0.00 | 0.00 | 0.00 | 39 | 1020.0 |
| 20260902014048 | 20 | 182 | 0.0 | 4.8 | 0.00 | 0.00 | 0.00 | 38 | 1020.0 |
| 20260902013700 | 20 | 46 | 0.0 | 11.3 | 0.00 | 0.00 | 0.00 | 38 | 1019.9 |
| 20260902013105 | 20 | 26 | 1.6 | 11.3 | 0.00 | 0.00 | 0.00 | 36 | 1019.9 |
| 20260902012548 | 20 | 37 | 1.6 | 6.4 | 0.00 | 0.00 | 0.00 | 39 | 1019.9 |
| 20260902012045 | 20 | 75 | 1.6 | 6.4 | 0.00 | 0.00 | 0.00 | 37 | 1020.0 |
| 20260902011603 | 20 | 0 | 1.6 | 12.9 | 0.00 | 0.00 | 0.00 | 39 | 1020.0 |
| 20260902011047 | 20 | 5 | 0.0 | 12.9 | 0.00 | 0.00 | 0.00 | 39 | 1020.1 |
| 20260902010546 | 21 | 280 | 1.6 | 9.7 | 0.00 | 0.00 | 0.00 | 38 | 1020.1 |
| 20260902010107 | 21 | 41 | 1.6 | 8.0 | 0.00 | 0.00 | 0.00 | 39 | 1020.0 |
| 20260902005547 | 21 | 0 | 1.6 | 8.0 | 0.00 | 0.00 | 0.00 | 39 | 1020.1 |
| 20260902005044 | 21 | 144 | 1.6 | 6.4 | 0.00 | 0.00 | 0.00 | 40 | 1020.1 |
| 20260902004600 | 22 | 0 | 0.0 | 8.0 | 0.00 | 0.00 | 0.00 | 40 | 1020.2 |
| 20260902004049 | 22 | 0 | 1.6 | 9.7 | 0.00 | 0.00 | 0.00 | 40 | 1020.3 |
| 20260902003548 | 22 | 254 | 1.6 | 9.7 | 0.00 | 0.00 | 0.00 | 40 | 1020.2 |
| 20260902003107 | 22 | 360 | 1.6 | 16.1 | 0.00 | 0.00 | 0.00 | 39 | 1020.1 |
| 20260902002547 | 22 | 167 | 1.6 | 16.1 | 0.00 | 0.00 | 0.00 | 40 | 1020.2 |
| 20260902002046 | 22 | 210 | 1.6 | 16.1 | 0.00 | 0.00 | 0.00 | 40 | 1020.3 |
| 20260902001605 | 22 | 250 | 4.8 | 12.9 | 0.00 | 0.00 | 0.00 | 40 | 1020.2 |
| 20260902001046 | 23 | 147 | 1.6 | 14.5 | 0.00 | 0.00 | 0.00 | 39 | 1020.3 |
| 20260902000547 | 23 | 212 | 4.8 | 14.5 | 0.00 | 0.00 | 0.00 | 38 | 1020.3 |
| 20260902000100 | 23 | 65 | 3.2 | 11.3 | 0.00 | 0.00 | 0.00 | 38 | 1020.3 |
| 20260901235546 | 23 | 0 | 1.6 | 12.9 | 0.00 | 0.00 | 0.00 | 40 | 1020.3 |
| 20260901235047 | 23 | 100 | 3.2 | 12.9 | 0.00 | 0.00 | 0.00 | 40 | 1020.4 |
| 20260901234601 | 23 | 211 | 3.2 | 12.9 | 0.00 | 0.00 | 0.00 | 41 | 1020.5 |